Time,TemperatureF,DewpointF,PressureIn,WindDirection,WindDirectionDegrees,WindSpeedMPH,WindSpeedGustMPH,Humidity,HourlyPrecipIn,Conditions,Clouds,dailyrainin,SoftwareType,DateUTC
2013-01-28 00:01:00,63.9,60.3,30.26,ESE,104,0.0,3.0,88,0.00,,,0.01,meteohub,2013-01-28 05:01:00,
2013-01-28 00:02:00,63.9,60.3,30.26,ESE,105,0.0,3.0,88,0.00,,,0.01,meteohub,2013-01-28 05:02:00,
2013-01-28 00:07:00,63.5,59.9,30.26,ESE,104,1.0,2.0,88,0.00,,,0.00,meteohub,2013-01-28 05:07:00,
2013-01-28 00:10:00,63.5,59.9,30.25,East,80,1.0,3.0,88,0.00,,,0.00,meteohub,2013-01-28 05:10:00,
2013-01-28 00:16:00,63.7,60.1,30.25,East,80,2.0,5.0,88,0.00,,,0.00,meteohub,2013-01-28 05:16:00,
2013-01-28 00:22:00,63.7,60.1,30.25,East,80,0.0,5.0,88,0.00,,,0.00,meteohub,2013-01-28 05:22:00,
2013-01-28 00:27:00,63.5,59.9,30.25,East,80,1.0,4.0,88,0.00,,,0.00,meteohub,2013-01-28 05:27:00,
2013-01-28 00:32:00,63.3,59.4,30.25,East,80,2.0,3.0,87,0.00,,,0.00,meteohub,2013-01-28 05:32:00,
2013-01-28 00:37:00,63.1,59.5,30.25,East,80,1.0,3.0,88,0.00,,,0.00,meteohub,2013-01-28 05:37:00,
2013-01-28 00:42:00,63.1,59.5,30.25,ENE,70,3.0,3.0,88,0.00,,,0.00,meteohub,2013-01-28 05:42:00,
2013-01-28 00:47:00,63.1,59.9,30.25,East,79,3.0,7.0,89,0.00,,,0.00,meteohub,2013-01-28 05:47:00,
2013-01-28 00:52:00,63.3,60.1,30.25,ENE,61,2.0,7.0,89,0.00,,,0.00,meteohub,2013-01-28 05:52:00,
2013-01-28 00:57:00,63.3,60.1,30.25,ENE,61,0.0,7.0,89,0.00,,,0.00,meteohub,2013-01-28 05:57:00,
2013-01-28 01:02:00,63.1,59.9,30.26,ENE,74,1.0,4.0,89,0.00,,,0.00,meteohub,2013-01-28 06:02:00,
2013-01-28 01:07:00,63.1,59.9,30.26,ENE,74,0.0,3.0,89,0.00,,,0.00,meteohub,2013-01-28 06:07:00,
2013-01-28 01:12:00,63.0,59.9,30.26,East,80,2.0,4.0,90,0.00,,,0.00,meteohub,2013-01-28 06:12:00,
2013-01-28 01:17:00,63.0,59.9,30.26,ENE,74,0.0,5.0,90,0.00,,,0.00,meteohub,2013-01-28 06:17:00,
2013-01-28 01:22:00,63.0,60.3,30.26,ENE,73,2.0,5.0,91,0.00,,,0.00,meteohub,2013-01-28 06:22:00,
2013-01-28 01:27:00,63.0,60.3,30.26,ENE,73,1.0,5.0,91,0.00,,,0.00,meteohub,2013-01-28 06:27:00,
2013-01-28 01:32:00,63.0,60.3,30.26,ENE,77,3.0,4.0,91,0.00,,,0.00,meteohub,2013-01-28 06:32:00,
2013-01-28 01:37:00,62.8,60.1,30.26,ENE,58,2.0,4.0,91,0.00,,,0.00,meteohub,2013-01-28 06:37:00,
2013-01-28 01:42:00,62.8,60.4,30.26,NE,44,4.0,4.0,92,0.00,,,0.00,meteohub,2013-01-28 06:42:00,
2013-01-28 01:47:00,63.0,60.6,30.25,East,87,2.0,5.0,92,0.00,,,0.00,meteohub,2013-01-28 06:47:00,
2013-01-28 01:52:00,62.8,60.4,30.25,East,79,2.0,5.0,92,0.00,,,0.00,meteohub,2013-01-28 06:52:00,
2013-01-28 01:57:00,62.8,60.4,30.25,ENE,71,2.0,5.0,92,0.00,,,0.00,meteohub,2013-01-28 06:57:00,
2013-01-28 02:02:00,62.8,60.4,30.25,East,79,1.0,3.0,92,0.00,,,0.00,meteohub,2013-01-28 07:02:00,
2013-01-28 02:07:00,62.8,60.4,30.25,East,82,2.0,5.0,92,0.00,,,0.00,meteohub,2013-01-28 07:07:00,
2013-01-28 02:12:00,62.8,60.4,30.25,ENE,69,1.0,5.0,92,0.00,,,0.00,meteohub,2013-01-28 07:12:00,
2013-01-28 02:17:00,62.8,60.8,30.25,ENE,78,0.0,5.0,93,0.00,,,0.00,meteohub,2013-01-28 07:17:00,
2013-01-28 02:22:00,62.8,60.8,30.25,SE,140,0.0,5.0,93,0.00,,,0.00,meteohub,2013-01-28 07:22:00,
2013-01-28 02:27:00,62.8,60.8,30.25,ENE,59,3.0,4.0,93,0.00,,,0.00,meteohub,2013-01-28 07:27:00,
2013-01-28 02:32:00,63.0,61.0,30.25,East,79,0.0,6.0,93,0.00,,,0.00,meteohub,2013-01-28 07:32:00,
2013-01-28 02:37:00,63.0,61.0,30.25,ENE,78,2.0,6.0,93,0.00,,,0.00,meteohub,2013-01-28 07:37:00,
2013-01-28 02:42:00,63.0,61.0,30.25,ENE,65,2.0,6.0,93,0.00,,,0.00,meteohub,2013-01-28 07:42:00,
2013-01-28 02:47:00,63.0,61.0,30.25,ENE,65,3.0,4.0,93,0.00,,,0.00,meteohub,2013-01-28 07:47:00,
2013-01-28 02:52:00,63.0,61.0,30.25,ENE,74,1.0,4.0,93,0.00,,,0.00,meteohub,2013-01-28 07:52:00,
2013-01-28 02:57:00,63.0,61.0,30.25,ENE,74,1.0,7.0,93,0.00,,,0.00,meteohub,2013-01-28 07:57:00,
2013-01-28 03:02:00,63.0,61.0,30.25,ENE,74,0.0,7.0,93,0.00,,,0.00,meteohub,2013-01-28 08:02:00,
2013-01-28 03:07:00,63.0,61.0,30.25,ENE,73,0.0,4.0,93,0.00,,,0.00,meteohub,2013-01-28 08:07:00,
2013-01-28 03:12:00,62.8,60.8,30.25,ENE,73,1.0,3.0,93,0.00,,,0.00,meteohub,2013-01-28 08:12:00,
2013-01-28 03:17:00,62.8,61.0,30.25,ENE,71,1.0,3.0,94,0.00,,,0.00,meteohub,2013-01-28 08:17:00,
2013-01-28 03:22:00,63.0,61.2,30.25,ENE,71,2.0,3.0,94,0.00,,,0.00,meteohub,2013-01-28 08:22:00,
2013-01-28 03:27:00,62.8,61.0,30.25,ENE,71,0.0,3.0,94,0.00,,,0.00,meteohub,2013-01-28 08:27:00,
2013-01-28 03:32:00,63.0,61.2,30.25,ENE,71,1.0,3.0,94,0.00,,,0.00,meteohub,2013-01-28 08:32:00,
2013-01-28 03:37:00,63.0,61.2,30.25,ENE,59,4.0,4.0,94,0.00,,,0.00,meteohub,2013-01-28 08:37:00,
2013-01-28 03:42:00,63.0,61.2,30.25,ENE,59,0.0,4.0,94,0.00,,,0.00,meteohub,2013-01-28 08:42:00,
2013-01-28 03:47:00,63.0,61.2,30.24,ENE,76,2.0,4.0,94,0.00,,,0.00,meteohub,2013-01-28 08:47:00,
2013-01-28 03:52:00,63.0,61.2,30.25,ENE,76,0.0,4.0,94,0.00,,,0.00,meteohub,2013-01-28 08:52:00,
2013-01-28 03:57:00,63.0,61.2,30.25,SE,137,1.0,6.0,94,0.00,,,0.00,meteohub,2013-01-28 08:57:00,
2013-01-28 04:03:00,63.0,61.2,30.25,ESE,119,1.0,6.0,94,0.00,,,0.00,meteohub,2013-01-28 09:03:00,
2013-01-28 04:09:00,63.0,61.2,30.25,ESE,117,1.0,4.0,94,0.00,,,0.00,meteohub,2013-01-28 09:09:00,
2013-01-28 04:15:00,63.1,61.3,30.25,ESE,121,0.0,4.0,94,0.00,,,0.00,meteohub,2013-01-28 09:15:00,
2013-01-28 04:21:00,63.0,61.2,30.25,East,92,0.0,5.0,94,0.00,,,0.00,meteohub,2013-01-28 09:21:00,
2013-01-28 04:27:00,63.0,61.2,30.25,East,92,0.0,4.0,94,0.00,,,0.00,meteohub,2013-01-28 09:27:00,
2013-01-28 04:32:00,62.8,61.0,30.25,East,93,2.0,3.0,94,0.00,,,0.00,meteohub,2013-01-28 09:32:00,
2013-01-28 04:37:00,62.8,61.0,30.25,ENE,71,4.0,4.0,94,0.00,,,0.00,meteohub,2013-01-28 09:37:00,
2013-01-28 04:42:00,62.8,61.0,30.25,ENE,72,2.0,4.0,94,0.00,,,0.00,meteohub,2013-01-28 09:42:00,
2013-01-28 04:47:00,62.8,61.0,30.25,East,92,0.0,4.0,94,0.00,,,0.00,meteohub,2013-01-28 09:47:00,
2013-01-28 04:52:00,62.8,61.3,30.25,NE,46,0.0,4.0,95,0.00,,,0.00,meteohub,2013-01-28 09:52:00,
2013-01-28 04:57:00,62.8,61.3,30.25,ENE,64,1.0,4.0,95,0.00,,,0.00,meteohub,2013-01-28 09:57:00,
2013-01-28 05:03:00,62.6,61.2,30.25,ENE,64,0.0,4.0,95,0.00,,,0.00,meteohub,2013-01-28 10:03:00,
2013-01-28 05:09:00,62.6,61.2,30.25,ENE,60,1.0,3.0,95,0.00,,,0.00,meteohub,2013-01-28 10:09:00,
2013-01-28 05:15:00,62.8,61.3,30.25,ENE,61,3.0,3.0,95,0.00,,,0.00,meteohub,2013-01-28 10:15:00,
2013-01-28 05:21:00,62.8,61.3,30.25,ENE,71,0.0,4.0,95,0.00,,,0.00,meteohub,2013-01-28 10:21:00,
2013-01-28 05:27:00,63.0,61.5,30.25,ENE,71,1.0,4.0,95,0.00,,,0.00,meteohub,2013-01-28 10:27:00,
2013-01-28 05:32:00,62.8,61.3,30.25,ENE,71,1.0,4.0,95,0.00,,,0.00,meteohub,2013-01-28 10:32:00,
2013-01-28 05:39:00,63.0,61.5,30.25,ENE,72,1.0,3.0,95,0.00,,,0.00,meteohub,2013-01-28 10:39:00,
2013-01-28 05:45:00,63.0,61.5,30.25,East,93,0.0,3.0,95,0.00,,,0.00,meteohub,2013-01-28 10:45:00,
2013-01-28 05:51:00,63.1,61.7,30.25,ESE,113,0.0,3.0,95,0.00,,,0.00,meteohub,2013-01-28 10:51:00,
2013-01-28 05:57:00,63.1,61.7,30.25,ENE,75,2.0,3.0,95,0.00,,,0.00,meteohub,2013-01-28 10:57:00,
2013-01-28 06:02:00,63.1,61.7,30.25,ENE,66,2.0,4.0,95,0.00,,,0.00,meteohub,2013-01-28 11:02:00,
2013-01-28 06:07:00,63.1,61.7,30.25,ENE,66,0.0,4.0,95,0.00,,,0.00,meteohub,2013-01-28 11:07:00,
2013-01-28 06:12:00,63.1,61.7,30.25,ENE,76,1.0,4.0,95,0.00,,,0.00,meteohub,2013-01-28 11:12:00,
2013-01-28 06:17:00,63.1,61.7,30.25,ENE,76,1.0,5.0,95,0.00,,,0.00,meteohub,2013-01-28 11:17:00,
2013-01-28 06:22:00,63.1,61.7,30.25,ENE,74,2.0,5.0,95,0.00,,,0.00,meteohub,2013-01-28 11:22:00,
2013-01-28 06:27:00,63.3,61.9,30.25,East,82,2.0,5.0,95,0.00,,,0.00,meteohub,2013-01-28 11:27:00,
2013-01-28 06:32:00,63.3,61.9,30.25,ENE,73,1.0,3.0,95,0.00,,,0.00,meteohub,2013-01-28 11:32:00,
2013-01-28 06:37:00,63.3,61.9,30.25,ENE,76,0.0,4.0,95,0.00,,,0.00,meteohub,2013-01-28 11:37:00,
2013-01-28 06:42:00,63.3,61.9,30.26,East,82,0.0,4.0,95,0.00,,,0.00,meteohub,2013-01-28 11:42:00,
2013-01-28 06:47:00,63.3,61.9,30.26,East,82,0.0,4.0,95,0.00,,,0.00,meteohub,2013-01-28 11:47:00,
2013-01-28 06:52:00,63.3,61.9,30.26,East,83,0.0,3.0,95,0.00,,,0.00,meteohub,2013-01-28 11:52:00,
2013-01-28 06:57:00,63.3,61.9,30.27,East,83,2.0,3.0,95,0.00,,,0.00,meteohub,2013-01-28 11:57:00,
2013-01-28 07:02:00,63.3,61.9,30.27,ENE,75,1.0,3.0,95,0.00,,,0.00,meteohub,2013-01-28 12:02:00,
2013-01-28 07:07:00,63.1,61.7,30.27,ENE,73,3.0,3.0,95,0.00,,,0.00,meteohub,2013-01-28 12:07:00,
2013-01-28 07:12:00,63.3,61.9,30.27,ENE,72,0.0,3.0,95,0.00,,,0.00,meteohub,2013-01-28 12:12:00,
2013-01-28 07:17:00,63.1,61.7,30.27,ENE,72,1.0,3.0,95,0.00,,,0.00,meteohub,2013-01-28 12:17:00,
2013-01-28 07:22:00,63.1,61.7,30.27,ENE,72,2.0,3.0,95,0.00,,,0.00,meteohub,2013-01-28 12:22:00,
2013-01-28 07:27:00,63.1,61.7,30.27,ENE,72,0.0,3.0,95,0.00,,,0.00,meteohub,2013-01-28 12:27:00,
2013-01-28 07:32:00,63.0,61.5,30.27,ENE,72,0.0,3.0,95,0.00,,,0.00,meteohub,2013-01-28 12:32:00,
2013-01-28 07:37:00,63.1,61.7,30.27,ENE,72,2.0,3.0,95,0.00,,,0.00,meteohub,2013-01-28 12:37:00,
2013-01-28 07:42:00,63.1,61.7,30.27,ENE,72,1.0,3.0,95,0.00,,,0.00,meteohub,2013-01-28 12:42:00,
2013-01-28 07:47:00,63.1,61.7,30.27,East,89,1.0,3.0,95,0.00,,,0.00,meteohub,2013-01-28 12:47:00,
2013-01-28 07:52:00,63.1,62.1,30.28,East,89,0.0,2.0,96,0.00,,,0.00,meteohub,2013-01-28 12:52:00,
2013-01-28 07:57:00,63.3,62.2,30.28,East,89,0.0,2.0,96,0.00,,,0.00,meteohub,2013-01-28 12:57:00,
2013-01-28 08:02:00,63.7,62.6,30.28,East,89,2.0,2.0,96,0.00,,,0.00,meteohub,2013-01-28 13:02:00,
2013-01-28 08:07:00,63.9,62.8,30.28,ENE,64,0.0,5.0,96,0.00,,,0.00,meteohub,2013-01-28 13:07:00,
2013-01-28 08:12:00,64.2,63.1,30.28,ENE,71,1.0,5.0,96,0.00,,,0.00,meteohub,2013-01-28 13:12:00,
2013-01-28 08:17:00,64.6,63.1,30.28,ENE,69,0.0,5.0,95,0.00,,,0.00,meteohub,2013-01-28 13:17:00,
2013-01-28 08:22:00,64.9,63.5,30.28,East,85,2.0,5.0,95,0.00,,,0.00,meteohub,2013-01-28 13:22:00,
2013-01-28 08:27:00,65.5,63.7,30.28,ESE,108,0.0,5.0,94,0.00,,,0.00,meteohub,2013-01-28 13:27:00,
2013-01-28 08:32:00,65.8,63.7,30.28,East,85,2.0,5.0,93,0.00,,,0.00,meteohub,2013-01-28 13:32:00,
2013-01-28 08:37:00,66.0,63.7,30.28,East,83,0.0,7.0,92,0.00,,,0.00,meteohub,2013-01-28 13:37:00,
2013-01-28 08:42:00,66.4,64.0,30.29,NE,55,2.0,7.0,92,0.00,,,0.00,meteohub,2013-01-28 13:42:00,
2013-01-28 08:47:00,66.7,64.0,30.29,ESE,123,4.0,7.0,91,0.00,,,0.00,meteohub,2013-01-28 13:47:00,
2013-01-28 08:52:00,66.9,64.2,30.29,East,94,2.0,7.0,91,0.00,,,0.00,meteohub,2013-01-28 13:52:00,
2013-01-28 08:57:00,66.9,63.9,30.29,SE,130,0.0,7.0,90,0.00,,,0.00,meteohub,2013-01-28 13:57:00,
2013-01-28 09:02:00,66.9,63.9,30.29,ESE,115,3.0,7.0,90,0.00,,,0.00,meteohub,2013-01-28 14:02:00,
2013-01-28 09:07:00,66.9,63.9,30.29,SE,143,0.0,6.0,90,0.00,,,0.00,meteohub,2013-01-28 14:07:00,
2013-01-28 09:12:00,66.9,64.2,30.29,ESE,111,2.0,6.0,91,0.00,,,0.00,meteohub,2013-01-28 14:12:00,
2013-01-28 09:17:00,66.9,63.9,30.29,ESE,117,3.0,8.0,90,0.00,,,0.00,meteohub,2013-01-28 14:17:00,
2013-01-28 09:22:00,66.9,63.9,30.30,SE,143,4.0,8.0,90,0.00,,,0.00,meteohub,2013-01-28 14:22:00,
2013-01-28 09:27:00,66.9,64.2,30.30,ESE,110,0.0,8.0,91,0.00,,,0.00,meteohub,2013-01-28 14:27:00,
2013-01-28 09:32:00,66.9,64.2,30.30,East,82,0.0,8.0,91,0.00,,,0.00,meteohub,2013-01-28 14:32:00,
2013-01-28 09:37:00,66.9,64.2,30.30,SE,132,3.0,8.0,91,0.00,,,0.00,meteohub,2013-01-28 14:37:00,
2013-01-28 09:42:00,67.1,64.0,30.30,SSE,157,2.0,5.0,90,0.00,,,0.00,meteohub,2013-01-28 14:42:00,
2013-01-28 09:47:00,67.3,64.2,30.30,ESE,123,0.0,5.0,90,0.00,,,0.00,meteohub,2013-01-28 14:47:00,
2013-01-28 09:52:00,67.3,64.2,30.30,SE,126,1.0,6.0,90,0.00,,,0.00,meteohub,2013-01-28 14:52:00,
2013-01-28 09:57:00,67.3,64.2,30.30,ESE,115,1.0,6.0,90,0.00,,,0.00,meteohub,2013-01-28 14:57:00,
2013-01-28 10:02:00,67.5,64.4,30.30,East,92,5.0,6.0,90,0.00,,,0.00,meteohub,2013-01-28 15:02:00,
2013-01-28 10:07:00,67.6,64.2,30.30,ESE,107,3.0,6.0,89,0.00,,,0.00,meteohub,2013-01-28 15:07:00,
2013-01-28 10:12:00,67.6,64.2,30.30,SE,126,5.0,7.0,89,0.00,,,0.00,meteohub,2013-01-28 15:12:00,
2013-01-28 10:17:00,67.6,64.2,30.30,SE,125,5.0,8.0,89,0.00,,,0.00,meteohub,2013-01-28 15:17:00,
2013-01-28 10:22:00,67.8,64.4,30.30,SSE,158,2.0,8.0,89,0.00,,,0.00,meteohub,2013-01-28 15:22:00,
2013-01-28 10:27:00,68.0,64.6,30.30,East,80,3.0,8.0,89,0.00,,,0.00,meteohub,2013-01-28 15:27:00,
2013-01-28 10:32:00,68.4,64.9,30.30,East,97,1.0,9.0,89,0.00,,,0.00,meteohub,2013-01-28 15:32:00,
2013-01-28 10:37:00,68.9,65.1,30.30,ENE,74,1.0,9.0,88,0.00,,,0.00,meteohub,2013-01-28 15:37:00,
2013-01-28 10:42:00,69.6,65.7,30.30,SE,130,8.0,9.0,87,0.00,,,0.00,meteohub,2013-01-28 15:42:00,
2013-01-28 10:47:00,70.2,65.5,30.30,East,86,3.0,10.0,85,0.00,,,0.00,meteohub,2013-01-28 15:47:00,
2013-01-28 10:52:00,70.7,65.7,30.30,South,175,3.0,10.0,84,0.00,,,0.00,meteohub,2013-01-28 15:52:00,
2013-01-28 10:57:00,70.9,65.5,30.30,SE,127,4.0,10.0,83,0.00,,,0.00,meteohub,2013-01-28 15:57:00,
2013-01-28 11:02:00,71.1,65.7,30.30,SE,134,5.0,10.0,83,0.00,,,0.00,meteohub,2013-01-28 16:02:00,
2013-01-28 11:07:00,71.8,66.0,30.30,South,176,2.0,10.0,82,0.00,,,0.00,meteohub,2013-01-28 16:07:00,
2013-01-28 11:12:00,72.1,65.7,30.30,ENE,78,5.0,8.0,80,0.00,,,0.00,meteohub,2013-01-28 16:12:00,
2013-01-28 11:17:00,72.5,65.7,30.30,SE,143,5.0,9.0,79,0.00,,,0.00,meteohub,2013-01-28 16:17:00,
2013-01-28 11:22:00,72.7,65.8,30.30,SE,129,5.0,10.0,79,0.00,,,0.00,meteohub,2013-01-28 16:22:00,
2013-01-28 11:27:00,72.5,65.3,30.29,ESE,102,2.0,10.0,78,0.00,,,0.00,meteohub,2013-01-28 16:27:00,
2013-01-28 11:32:00,72.3,65.5,30.29,SE,134,3.0,10.0,79,0.00,,,0.00,meteohub,2013-01-28 16:32:00,
2013-01-28 11:37:00,72.7,65.8,30.29,SE,128,5.0,9.0,79,0.00,,,0.00,meteohub,2013-01-28 16:37:00,
2013-01-28 11:42:00,73.0,66.2,30.29,East,79,3.0,10.0,79,0.00,,,0.00,meteohub,2013-01-28 16:42:00,
2013-01-28 11:47:00,74.1,66.0,30.29,East,93,2.0,10.0,76,0.00,,,0.00,meteohub,2013-01-28 16:47:00,
2013-01-28 11:52:00,74.7,66.2,30.29,South,171,3.0,10.0,75,0.00,,,0.00,meteohub,2013-01-28 16:52:00,
2013-01-28 11:57:00,75.4,66.6,30.29,SSW,198,3.0,10.0,74,0.00,,,0.00,meteohub,2013-01-28 16:57:00,
2013-01-28 12:02:00,75.7,66.0,30.28,ESE,108,5.0,10.0,72,0.00,,,0.00,meteohub,2013-01-28 17:02:00,
2013-01-28 12:07:00,75.7,66.0,30.28,SE,128,3.0,8.0,72,0.00,,,0.00,meteohub,2013-01-28 17:07:00,
2013-01-28 12:12:00,75.9,65.8,30.28,ESE,117,4.0,9.0,71,0.00,,,0.00,meteohub,2013-01-28 17:12:00,
2013-01-28 12:17:00,75.9,65.8,30.28,SSE,150,2.0,10.0,71,0.00,,,0.00,meteohub,2013-01-28 17:17:00,
2013-01-28 12:22:00,76.3,66.2,30.28,East,88,5.0,10.0,71,0.00,,,0.00,meteohub,2013-01-28 17:22:00,
2013-01-28 12:27:00,76.3,65.8,30.27,SW,223,2.0,10.0,70,0.00,,,0.00,meteohub,2013-01-28 17:27:00,
2013-01-28 12:32:00,76.6,65.3,30.27,ESE,109,5.0,8.0,68,0.00,,,0.00,meteohub,2013-01-28 17:32:00,
2013-01-28 12:37:00,76.8,65.8,30.27,ESE,117,2.0,10.0,69,0.00,,,0.00,meteohub,2013-01-28 17:37:00,
2013-01-28 12:42:00,77.5,65.7,30.26,ESE,122,0.0,10.0,67,0.00,,,0.00,meteohub,2013-01-28 17:42:00,
2013-01-28 12:47:00,77.5,65.7,30.26,ESE,103,1.0,10.0,67,0.00,,,0.00,meteohub,2013-01-28 17:47:00,
2013-01-28 12:52:00,77.4,65.5,30.26,ESE,122,3.0,8.0,67,0.00,,,0.00,meteohub,2013-01-28 17:52:00,
2013-01-28 12:57:00,77.0,65.1,30.25,SE,144,3.0,8.0,67,0.00,,,0.00,meteohub,2013-01-28 17:57:00,
2013-01-28 13:02:00,77.2,65.8,30.25,ENE,58,1.0,10.0,68,0.00,,,0.00,meteohub,2013-01-28 18:02:00,
2013-01-28 13:07:00,76.8,64.9,30.25,ESE,113,2.0,11.0,67,0.00,,,0.00,meteohub,2013-01-28 18:07:00,
2013-01-28 13:12:00,77.0,65.7,30.25,South,180,3.0,11.0,68,0.00,,,0.00,meteohub,2013-01-28 18:12:00,
2013-01-28 13:17:00,77.0,65.1,30.24,SSE,164,3.0,11.0,67,0.00,,,0.00,meteohub,2013-01-28 18:17:00,
2013-01-28 13:24:00,76.6,65.3,30.24,SE,140,1.0,10.0,68,0.00,,,0.00,meteohub,2013-01-28 18:24:00,
2013-01-28 13:30:00,76.6,65.3,30.24,ENE,69,3.0,8.0,68,0.00,,,0.00,meteohub,2013-01-28 18:30:00,
2013-01-28 13:36:00,76.3,64.9,30.23,ENE,65,7.0,9.0,68,0.00,,,0.00,meteohub,2013-01-28 18:36:00,
2013-01-28 13:42:00,76.3,64.9,30.23,SE,140,3.0,9.0,68,0.00,,,0.00,meteohub,2013-01-28 18:42:00,
2013-01-28 13:47:00,76.6,65.3,30.23,ENE,61,2.0,9.0,68,0.00,,,0.00,meteohub,2013-01-28 18:47:00,
2013-01-28 13:52:00,76.8,64.9,30.23,East,93,1.0,7.0,67,0.00,,,0.00,meteohub,2013-01-28 18:52:00,
2013-01-28 13:57:00,76.8,64.9,30.23,East,82,1.0,7.0,67,0.00,,,0.00,meteohub,2013-01-28 18:57:00,
2013-01-28 14:02:00,77.2,64.6,30.23,ESE,111,1.0,7.0,65,0.00,,,0.00,meteohub,2013-01-28 19:02:00,
2013-01-28 14:07:00,77.7,64.9,30.22,ENE,71,7.0,9.0,65,0.00,,,0.00,meteohub,2013-01-28 19:07:00,
2013-01-28 14:12:00,78.1,64.4,30.22,SE,140,4.0,9.0,63,0.00,,,0.00,meteohub,2013-01-28 19:12:00,
2013-01-28 14:17:00,78.1,64.0,30.22,ENE,60,2.0,7.0,62,0.00,,,0.00,meteohub,2013-01-28 19:17:00,
2013-01-28 14:22:00,78.3,64.2,30.22,SE,125,0.0,7.0,62,0.00,,,0.00,meteohub,2013-01-28 19:22:00,
2013-01-28 14:27:00,78.1,64.0,30.22,SE,132,2.0,7.0,62,0.00,,,0.00,meteohub,2013-01-28 19:27:00,
2013-01-28 14:32:00,78.4,63.9,30.21,East,85,3.0,8.0,61,0.00,,,0.00,meteohub,2013-01-28 19:32:00,
2013-01-28 14:37:00,78.6,64.0,30.21,ESE,105,2.0,8.0,61,0.00,,,0.00,meteohub,2013-01-28 19:37:00,
2013-01-28 14:42:00,78.4,63.0,30.21,SE,125,4.0,8.0,59,0.00,,,0.00,meteohub,2013-01-28 19:42:00,
2013-01-28 14:48:00,78.3,62.8,30.21,ESE,106,1.0,8.0,59,0.00,,,0.00,meteohub,2013-01-28 19:48:00,
2013-01-28 14:54:00,78.1,63.1,30.21,ESE,121,3.0,7.0,60,0.00,,,0.00,meteohub,2013-01-28 19:54:00,
2013-01-28 15:00:00,78.4,63.3,30.20,ESE,104,1.0,7.0,60,0.00,,,0.00,meteohub,2013-01-28 20:00:00,
2013-01-28 15:06:00,78.8,63.7,30.20,SE,126,3.0,7.0,60,0.00,,,0.00,meteohub,2013-01-28 20:06:00,
2013-01-28 15:12:00,79.2,63.7,30.20,SE,133,2.0,6.0,59,0.00,,,0.00,meteohub,2013-01-28 20:12:00,
2013-01-28 15:17:00,79.2,63.7,30.20,East,94,2.0,7.0,59,0.00,,,0.00,meteohub,2013-01-28 20:17:00,
2013-01-28 15:22:00,79.3,63.7,30.20,ESE,118,1.0,7.0,59,0.00,,,0.00,meteohub,2013-01-28 20:22:00,
2013-01-28 15:27:00,79.7,63.7,30.19,SE,130,2.0,7.0,58,0.00,,,0.00,meteohub,2013-01-28 20:27:00,
2013-01-28 15:32:00,80.1,63.9,30.19,East,82,2.0,7.0,58,0.00,,,0.00,meteohub,2013-01-28 20:32:00,
2013-01-28 15:37:00,80.2,63.7,30.19,SE,125,1.0,7.0,57,0.00,,,0.00,meteohub,2013-01-28 20:37:00,
2013-01-28 15:42:00,80.4,62.2,30.19,NE,39,3.0,7.0,54,0.00,,,0.00,meteohub,2013-01-28 20:42:00,
2013-01-28 15:47:00,80.1,62.4,30.19,ENE,76,4.0,8.0,55,0.00,,,0.00,meteohub,2013-01-28 20:47:00,
2013-01-28 15:52:00,79.9,62.8,30.18,SE,125,1.0,8.0,56,0.00,,,0.00,meteohub,2013-01-28 20:52:00,
2013-01-28 15:57:00,79.9,62.8,30.18,ESE,111,3.0,8.0,56,0.00,,,0.00,meteohub,2013-01-28 20:57:00,
2013-01-28 16:04:00,80.2,62.6,30.18,ESE,103,0.0,7.0,55,0.00,,,0.00,meteohub,2013-01-28 21:04:00,
2013-01-28 16:10:00,81.0,62.8,30.18,SE,134,0.0,7.0,54,0.00,,,0.00,meteohub,2013-01-28 21:10:00,
2013-01-28 16:16:00,81.1,63.0,30.18,ENE,74,1.0,4.0,54,0.00,,,0.00,meteohub,2013-01-28 21:16:00,
2013-01-28 16:22:00,81.1,62.4,30.18,ESE,121,2.0,4.0,53,0.00,,,0.00,meteohub,2013-01-28 21:22:00,
2013-01-28 16:28:00,80.4,62.2,30.18,East,84,0.0,5.0,54,0.00,,,0.00,meteohub,2013-01-28 21:28:00,
2013-01-28 16:34:00,81.0,63.3,30.18,East,82,1.0,5.0,55,0.00,,,0.00,meteohub,2013-01-28 21:34:00,
2013-01-28 16:40:00,80.8,62.6,30.18,SE,124,1.0,5.0,54,0.00,,,0.00,meteohub,2013-01-28 21:40:00,
2013-01-28 16:46:00,80.4,62.2,30.18,SE,142,0.0,5.0,54,0.00,,,0.00,meteohub,2013-01-28 21:46:00,
2013-01-28 16:52:00,80.6,62.4,30.18,SE,143,2.0,5.0,54,0.00,,,0.00,meteohub,2013-01-28 21:52:00,
2013-01-28 16:57:00,80.4,62.2,30.18,East,98,1.0,3.0,54,0.00,,,0.00,meteohub,2013-01-28 21:57:00,
2013-01-28 17:02:00,80.1,61.9,30.18,ESE,122,4.0,4.0,54,0.00,,,0.00,meteohub,2013-01-28 22:02:00,
2013-01-28 17:07:00,79.5,61.9,30.18,East,92,0.0,5.0,55,0.00,,,0.00,meteohub,2013-01-28 22:07:00,
2013-01-28 17:12:00,79.2,62.1,30.18,SE,139,0.0,5.0,56,0.00,,,0.00,meteohub,2013-01-28 22:12:00,
2013-01-28 17:17:00,79.0,61.9,30.18,SE,141,0.0,4.0,56,0.00,,,0.00,meteohub,2013-01-28 22:17:00,
2013-01-28 17:22:00,78.6,62.1,30.19,SE,141,0.0,4.0,57,0.00,,,0.00,meteohub,2013-01-28 22:22:00,
2013-01-28 17:27:00,78.4,61.9,30.19,SE,141,0.0,4.0,57,0.00,,,0.00,meteohub,2013-01-28 22:27:00,
2013-01-28 17:32:00,78.1,62.1,30.19,SE,141,0.0,2.0,58,0.00,,,0.00,meteohub,2013-01-28 22:32:00,
2013-01-28 17:37:00,77.9,61.9,30.19,SE,141,0.0,2.0,58,0.00,,,0.00,meteohub,2013-01-28 22:37:00,
2013-01-28 17:42:00,77.7,62.2,30.19,SE,141,0.0,2.0,59,0.00,,,0.00,meteohub,2013-01-28 22:42:00,
2013-01-28 17:47:00,77.5,62.6,30.19,SE,141,0.0,1.0,60,0.00,,,0.00,meteohub,2013-01-28 22:47:00,
2013-01-28 17:53:00,77.2,62.2,30.19,SE,141,0.0,1.0,60,0.00,,,0.00,meteohub,2013-01-28 22:53:00,
2013-01-28 17:59:00,76.8,62.4,30.19,SE,141,0.0,1.0,61,0.00,,,0.00,meteohub,2013-01-28 22:59:00,
2013-01-28 18:05:00,76.6,62.6,30.19,SE,141,0.0,1.0,62,0.00,,,0.00,meteohub,2013-01-28 23:05:00,
2013-01-28 18:11:00,76.3,62.2,30.19,SE,141,0.0,1.0,62,0.00,,,0.00,meteohub,2013-01-28 23:11:00,
2013-01-28 18:17:00,75.9,62.4,30.20,SE,141,0.0,0.0,63,0.00,,,0.00,meteohub,2013-01-28 23:17:00,
2013-01-28 18:22:00,75.7,62.2,30.20,SE,141,0.0,0.0,63,0.00,,,0.00,meteohub,2013-01-28 23:22:00,
2013-01-28 18:27:00,75.6,62.6,30.20,SE,141,0.0,0.0,64,0.00,,,0.00,meteohub,2013-01-28 23:27:00,
2013-01-28 18:32:00,75.0,62.1,30.20,SE,141,0.0,0.0,64,0.00,,,0.00,meteohub,2013-01-28 23:32:00,
2013-01-28 18:37:00,74.7,62.1,30.20,SE,141,0.0,2.0,65,0.00,,,0.00,meteohub,2013-01-28 23:37:00,
2013-01-28 18:42:00,74.5,61.9,30.20,SE,141,0.0,2.0,65,0.00,,,0.00,meteohub,2013-01-28 23:42:00,
2013-01-28 18:47:00,74.1,62.1,30.20,SE,141,1.0,2.0,66,0.00,,,0.00,meteohub,2013-01-28 23:47:00,
2013-01-28 18:52:00,73.9,62.2,30.20,SE,141,0.0,1.0,67,0.00,,,0.00,meteohub,2013-01-28 23:52:00,
2013-01-28 18:57:00,73.6,61.9,30.20,SE,141,0.0,1.0,67,0.00,,,0.00,meteohub,2013-01-28 23:57:00,
2013-01-28 19:02:00,73.4,62.2,30.20,SE,141,0.0,1.0,68,0.00,,,0.00,meteohub,2013-01-29 00:02:00,
2013-01-28 19:07:00,73.0,62.2,30.21,SE,141,0.0,1.0,69,0.00,,,0.00,meteohub,2013-01-29 00:07:00,
2013-01-28 19:12:00,72.9,62.1,30.21,SE,141,0.0,1.0,69,0.00,,,0.00,meteohub,2013-01-29 00:12:00,
2013-01-28 19:17:00,72.7,62.8,30.21,SE,141,0.0,2.0,71,0.00,,,0.00,meteohub,2013-01-29 00:17:00,
2013-01-28 19:22:00,72.3,62.4,30.21,SE,141,0.0,2.0,71,0.00,,,0.00,meteohub,2013-01-29 00:22:00,
2013-01-28 19:27:00,72.1,62.6,30.21,SE,141,0.0,2.0,72,0.00,,,0.00,meteohub,2013-01-29 00:27:00,
2013-01-28 19:32:00,72.0,62.4,30.21,SE,141,0.0,1.0,72,0.00,,,0.00,meteohub,2013-01-29 00:32:00,
2013-01-28 19:38:00,71.8,62.6,30.21,SE,141,0.0,1.0,73,0.00,,,0.00,meteohub,2013-01-29 00:38:00,
2013-01-28 19:44:00,71.4,62.8,30.21,SE,141,0.0,1.0,74,0.00,,,0.00,meteohub,2013-01-29 00:44:00,
2013-01-28 19:50:00,71.2,62.6,30.21,SE,141,0.0,1.0,74,0.00,,,0.00,meteohub,2013-01-29 00:50:00,
2013-01-28 19:56:00,71.1,62.4,30.21,SE,141,0.0,1.0,74,0.00,,,0.00,meteohub,2013-01-29 00:56:00,
2013-01-28 20:02:00,70.9,62.6,30.21,SE,141,0.0,1.0,75,0.00,,,0.00,meteohub,2013-01-29 01:02:00,
2013-01-28 20:07:00,70.5,62.2,30.21,SE,141,0.0,1.0,75,0.00,,,0.00,meteohub,2013-01-29 01:07:00,
2013-01-28 20:12:00,70.3,62.4,30.22,SE,141,0.0,0.0,76,0.00,,,0.00,meteohub,2013-01-29 01:12:00,
2013-01-28 20:17:00,70.2,62.2,30.22,SE,141,0.0,0.0,76,0.00,,,0.00,meteohub,2013-01-29 01:17:00,
2013-01-28 20:22:00,70.0,62.4,30.22,SE,141,0.0,0.0,77,0.00,,,0.00,meteohub,2013-01-29 01:22:00,
2013-01-28 20:27:00,69.6,62.4,30.22,SE,141,0.0,0.0,78,0.00,,,0.00,meteohub,2013-01-29 01:27:00,
2013-01-28 20:32:00,69.4,62.2,30.22,SE,141,0.0,1.0,78,0.00,,,0.00,meteohub,2013-01-29 01:32:00,
2013-01-28 20:37:00,69.3,62.4,30.22,SE,145,0.0,1.0,79,0.00,,,0.00,meteohub,2013-01-29 01:37:00,
2013-01-28 20:42:00,69.3,62.8,30.22,SE,145,0.0,2.0,80,0.00,,,0.00,meteohub,2013-01-29 01:42:00,
2013-01-28 20:47:00,69.3,62.8,30.22,SE,145,0.0,2.0,80,0.00,,,0.00,meteohub,2013-01-29 01:47:00,
2013-01-28 20:52:00,69.3,63.1,30.22,SE,145,0.0,2.0,81,0.00,,,0.00,meteohub,2013-01-29 01:52:00,
2013-01-28 20:57:00,69.4,63.7,30.22,SE,129,2.0,2.0,82,0.00,,,0.00,meteohub,2013-01-29 01:57:00,
2013-01-28 21:02:00,69.6,64.2,30.23,East,86,1.0,4.0,83,0.00,,,0.00,meteohub,2013-01-29 02:02:00,
2013-01-28 21:07:00,70.0,64.9,30.23,ENE,78,1.0,4.0,84,0.00,,,0.00,meteohub,2013-01-29 02:07:00,
2013-01-28 21:12:00,70.3,64.9,30.23,NE,47,1.0,5.0,83,0.00,,,0.00,meteohub,2013-01-29 02:12:00,
2013-01-28 21:17:00,70.5,65.1,30.23,NE,48,1.0,5.0,83,0.00,,,0.00,meteohub,2013-01-29 02:17:00,
2013-01-28 21:22:00,70.5,64.8,30.23,ENE,77,1.0,5.0,82,0.00,,,0.00,meteohub,2013-01-29 02:22:00,
2013-01-28 21:27:00,70.5,65.1,30.23,East,82,1.0,5.0,83,0.00,,,0.00,meteohub,2013-01-29 02:27:00,
2013-01-28 21:32:00,70.3,64.9,30.23,ENE,67,0.0,4.0,83,0.00,,,0.00,meteohub,2013-01-29 02:32:00,
2013-01-28 21:37:00,70.3,64.9,30.23,East,94,1.0,4.0,83,0.00,,,0.00,meteohub,2013-01-29 02:37:00,
2013-01-28 21:42:00,70.2,65.1,30.23,SE,136,0.0,4.0,84,0.00,,,0.00,meteohub,2013-01-29 02:42:00,
2013-01-28 21:48:00,70.0,64.9,30.22,SE,136,0.0,3.0,84,0.00,,,0.00,meteohub,2013-01-29 02:48:00,
2013-01-28 21:54:00,69.6,64.9,30.23,SE,136,0.0,3.0,85,0.00,,,0.00,meteohub,2013-01-29 02:54:00,
2013-01-28 22:00:00,69.4,65.1,30.23,SE,136,0.0,3.0,86,0.00,,,0.00,meteohub,2013-01-29 03:00:00,
2013-01-28 22:06:00,69.1,64.8,30.23,SE,136,0.0,1.0,86,0.00,,,0.00,meteohub,2013-01-29 03:06:00,
2013-01-28 22:12:00,68.7,64.8,30.23,SE,136,0.0,1.0,87,0.00,,,0.00,meteohub,2013-01-29 03:12:00,
2013-01-28 22:17:00,68.5,64.6,30.23,SE,136,0.0,1.0,87,0.00,,,0.00,meteohub,2013-01-29 03:17:00,
2013-01-28 22:22:00,68.4,64.6,30.23,SE,136,0.0,1.0,88,0.00,,,0.00,meteohub,2013-01-29 03:22:00,
2013-01-28 22:27:00,68.2,64.8,30.23,SE,136,0.0,0.0,89,0.00,,,0.00,meteohub,2013-01-29 03:27:00,
2013-01-28 22:33:00,68.0,64.6,30.23,SE,136,0.0,1.0,89,0.00,,,0.00,meteohub,2013-01-29 03:33:00,
2013-01-28 22:39:00,67.6,64.2,30.23,SE,136,0.0,1.0,89,0.00,,,0.00,meteohub,2013-01-29 03:39:00,
2013-01-28 22:45:00,67.5,64.4,30.23,SE,136,0.0,0.0,90,0.00,,,0.00,meteohub,2013-01-29 03:45:00,
2013-01-28 22:51:00,67.5,64.8,30.22,SE,136,0.0,0.0,91,0.00,,,0.00,meteohub,2013-01-29 03:51:00,
2013-01-28 22:57:00,67.3,64.6,30.22,SE,130,0.0,2.0,91,0.00,,,0.00,meteohub,2013-01-29 03:57:00,
2013-01-28 23:02:00,67.1,64.4,30.22,SE,130,0.0,3.0,91,0.00,,,0.00,meteohub,2013-01-29 04:02:00,
2013-01-28 23:07:00,66.9,64.2,30.22,SE,130,0.0,3.0,91,0.00,,,0.00,meteohub,2013-01-29 04:07:00,
2013-01-28 23:12:00,66.7,64.0,30.22,SE,130,0.0,1.0,91,0.00,,,0.00,meteohub,2013-01-29 04:12:00,
2013-01-28 23:17:00,66.7,64.4,30.22,SE,130,0.0,1.0,92,0.00,,,0.00,meteohub,2013-01-29 04:17:00,
2013-01-28 23:22:00,66.6,64.2,30.22,SE,130,0.0,1.0,92,0.00,,,0.00,meteohub,2013-01-29 04:22:00,
2013-01-28 23:27:00,66.6,64.4,30.22,SE,130,1.0,0.0,93,0.00,,,0.00,meteohub,2013-01-29 04:27:00,
2013-01-28 23:32:00,66.6,64.2,30.22,SE,130,1.0,1.0,92,0.00,,,0.00,meteohub,2013-01-29 04:32:00,
2013-01-28 23:37:00,66.4,64.0,30.22,SE,130,0.0,1.0,92,0.00,,,0.00,meteohub,2013-01-29 04:37:00,
2013-01-28 23:42:00,66.4,64.2,30.22,SE,130,0.0,1.0,93,0.00,,,0.00,meteohub,2013-01-29 04:42:00,
2013-01-28 23:48:00,66.0,63.9,30.22,SE,130,0.0,1.0,93,0.00,,,0.00,meteohub,2013-01-29 04:48:00,
2013-01-28 23:54:00,66.0,63.9,30.22,SE,130,0.0,1.0,93,0.00,,,0.00,meteohub,2013-01-29 04:54:00,